QPF
0.00 0.00 0.00 0.00 0.00 0.00 0.00 0.00 0.00 0.00 0.00 0.00 0.00 0.00 0.00 0.00 0.00 0.00 0.00 0.00 0.00 0.00 0.00 0.00 0.00 0.00 0.00 0.00 0.00 0.00 0.00 0.00 0.00 0.00 0.00 0.00 0.00 0.00 0.00 0.00 0.01 0.01 0.01
0.00 0.00 0.00 0.00 0.00 0.00 0.00 0.00 0.00 0.00 0.00 0.00 0.00 0.00 0.00 0.00 0.00 0.00 0.00 0.00 0.00 0.00 0.00 0.00 0.00 0.00 0.00 0.00 0.00 0.00 0.00 0.00 0.00 0.00 0.00 0.00 0.00 0.00 0.00 0.01 0.01 0.01 0.01
0.00 0.00 0.00 0.00 0.00 0.00 0.00 0.00 0.00 0.00 0.00 0.00 0.00 0.00 0.00 0.00 0.00 0.00 0.00 0.00 0.00 0.00 0.00 0.00 0.00 0.00 0.00 0.00 0.00 0.00 0.00 0.00 0.00 0.00 0.00 0.00 0.00 0.00 0.00 0.01 0.01 0.00 0.01
0.00 0.00 0.00 0.00 0.00 0.00 0.00 0.00 0.00 0.00 0.00 0.00 0.00 0.00 0.00 0.00 0.00 0.01 0.00 0.00 0.00 0.00 0.00 0.00 0.00 0.01 0.01 0.01 0.00 0.00 0.00 0.00 0.00 0.00 0.00 0.00 0.00 0.00 0.00 0.00 0.01 0.00 0.00
0.00 0.00 0.00 0.00 0.00 0.00 0.00 0.00 0.00 0.00 0.00 0.00 0.00 0.00 0.00 0.00 0.00 0.01 0.01 0.00 0.00 0.00 0.00 0.00 0.00 0.00 0.00 0.01 0.00 0.00 0.00 0.00 0.00 0.00 0.00 0.00 0.00 0.00 0.00 0.00 0.00 0.00 0.00
0.00 0.00 0.00 0.00 0.00 0.00 0.00 0.00 0.00 0.00 0.00 0.00 0.00 0.00 0.00 0.00 0.00 0.00 0.00 0.00 0.00 0.00 0.00 0.00 0.00 0.00 0.00 0.00 0.00 0.00 0.00 0.00 0.00 0.00 0.00 0.00 0.00 0.00 0.00 0.00 0.00 0.00 0.00
0.00 0.00 0.00 0.00 0.00 0.00 0.00 0.00 0.00 0.00 0.00 0.00 0.00 0.00 0.00 0.00 0.00 0.00 0.00 0.00 0.00 0.00 0.00 0.00 0.00 0.00 0.00 0.00 0.00 0.00 0.00 0.00 0.00 0.00 0.00 0.00 0.00 0.00 0.00 0.00 0.00 0.01 0.00
0.00 0.00 0.00 0.00 0.00 0.00 0.00 0.00 0.00 0.00 0.00 0.00 0.00 0.00 0.00 0.00 0.00 0.00 0.00 0.00 0.00 0.00 0.00 0.00 0.00 0.00 0.00 0.00 0.01 0.00 0.00 0.00 0.00 0.00 0.00 0.00 0.00 0.00 0.00 0.00 0.00 0.00 0.00
0.00 0.00 0.00 0.00 0.00 0.00 0.00 0.00 0.00 0.00 0.00 0.00 0.00 0.00 0.00 0.00 0.00 0.00 0.00 0.00 0.00 0.00 0.00 0.00 0.00 0.00 0.00 0.00 0.01 0.01 0.00 0.00 0.00 0.00 0.00 0.00 0.00 0.00 0.00 0.00 0.00 0.01 0.00
0.00 0.00 0.00 0.00 0.00 0.00 0.00 0.00 0.00 0.00 0.00 0.00 0.00 0.00 0.00 0.00 0.00 0.00 0.00 0.00 0.01 0.00 0.00 0.00 0.00 0.00 0.00 0.00 0.00 0.01 0.00 0.00 0.00 0.00 0.00 0.00 0.00 0.00 0.00 0.00 0.01 0.02 0.01
0.00 0.00 0.00 0.00 0.00 0.00 0.00 0.00 0.00 0.00 0.00 0.00 0.00 0.00 0.00 0.00 0.00 0.00 0.00 0.00 0.00 0.00 0.00 0.00 0.00 0.00 0.00 0.00 0.00 0.00 0.00 0.00 0.00 0.00 0.00 0.00 0.00 0.00 0.00 0.00 0.00 0.00 0.00
0.00 0.00 0.00 0.00 0.00 0.00 0.00 0.00 0.00 0.00 0.00 0.00 0.00 0.00 0.00 0.00 0.00 0.00 0.00 0.00 0.00 0.00 0.00 0.00 0.00 0.00 0.00 0.00 0.00 0.00 0.00 0.00 0.00 0.00 0.00 0.00 0.00 0.00 0.00 0.00 0.00 0.00 0.00
0.00 0.00 0.00 0.00 0.00 0.00 0.00 0.00 0.00 0.00 0.00 0.00 0.00 0.00 0.00 0.00 0.00 0.00 0.00 0.00 0.00 0.00 0.00 0.00 0.00 0.00 0.00 0.00 0.00 0.00 0.00 0.00 0.00 0.00 0.00 0.00 0.00 0.00 0.00 0.00 0.00 0.00 0.00
0.00 0.00 0.00 0.00 0.00 0.00 0.00 0.00 0.00 0.00 0.00 0.00 0.00 0.00 0.00 0.00 0.00 0.00 0.00 0.00 0.00 0.00 0.00 0.00 0.00 0.00 0.00 0.00 0.00 0.00 0.00 0.00 0.00 0.00 0.00 0.00 0.00 0.00 0.00 0.00 0.00 0.00 0.00
0.00 0.00 0.00 0.00 0.00 0.00 0.00 0.00 0.00 0.00 0.00 0.00 0.00 0.00 0.00 0.00 0.00 0.00 0.00 0.00 0.00 0.00 0.00 0.00 0.00 0.00 0.00 0.00 0.00 0.00 0.00 0.00 0.00 0.00 0.00 0.00 0.00 0.00 0.00 0.00 0.00 0.00 0.00
0.00 0.00 0.00 0.00 0.00 0.00 0.00 0.01 0.00 0.00 0.00 0.00 0.00 0.00 0.00 0.00 0.00 0.00 0.00 0.00 0.00 0.00 0.00 0.00 0.00 0.00 0.00 0.00 0.00 0.00 0.00 0.00 0.00 0.00 0.00 0.00 0.00 0.00 0.00 0.00 0.00 0.00 0.00
0.00 0.00 0.00 0.00 0.00 0.00 0.00 0.01 0.00 0.00 0.00 0.00 0.00 0.00 0.00 0.00 0.00 0.00 0.00 0.00 0.00 0.00 0.00 0.00 0.00 0.00 0.00 0.00 0.00 0.00 0.00 0.00 0.00 0.00 0.00 0.00 0.00 0.00 0.00 0.00 0.00 0.00 0.00
0.00 0.00 0.00 0.00 0.00 0.00 0.00 0.01 0.00 0.01 0.01 0.00 0.00 0.00 0.00 0.00 0.00 0.00 0.00 0.00 0.00 0.00 0.00 0.00 0.00 0.00 0.00 0.00 0.00 0.00 0.00 0.00 0.00 0.00 0.00 0.00 0.00 0.00 0.00 0.00 0.00 0.00 0.00
0.00 0.00 0.00 0.00 0.00 0.00 0.00 0.00 0.00 0.01 0.00 0.00 0.00 0.00 0.00 0.00 0.00 0.00 0.00 0.00 0.01 0.01 0.00 0.00 0.00 0.00 0.00 0.00 0.00 0.00 0.00 0.00 0.00 0.00 0.00 0.00 0.00 0.00 0.00 0.00 0.00 0.00 0.00
0.00 0.00 0.00 0.00 0.00 0.00 0.00 0.00 0.00 0.00 0.00 0.00 0.00 0.00 0.00 0.00 0.00 0.00 0.00 0.00 0.00 0.01 0.01 0.00 0.00 0.00 0.00 0.00 0.00 0.00 0.00 0.00 0.00 0.00 0.00 0.00 0.00 0.00 0.00 0.00 0.00 0.00 0.00
0.00 0.00 0.00 0.00 0.00 0.00 0.00 0.00 0.00 0.00 0.00 0.00 0.00 0.00 0.00 0.00 0.00 0.00 0.00 0.00 0.00 0.01 0.01 0.00 0.00 0.00 0.00 0.00 0.00 0.00 0.00 0.00 0.00 0.00 0.00 0.00 0.00 0.00 0.00 0.00 0.00 0.00 0.00
0.00 0.00 0.00 0.00 0.00 0.00 0.00 0.00 0.00 0.00 0.00 0.00 0.00 0.00 0.00 0.00 0.00 0.00 0.00 0.00 0.00 0.00 0.01 0.00 0.00 0.00 0.00 0.00 0.00 0.00 0.00 0.00 0.00 0.00 0.00 0.00 0.00 0.00 0.00 0.00 0.00 0.00 0.00
0.00 0.00 0.00 0.00 0.00 0.00 0.00 0.00 0.00 0.00 0.00 0.00 0.00 0.00 0.00 0.00 0.00 0.00 0.00 0.00 0.00 0.00 0.00 0.00 0.00 0.00 0.00 0.00 0.00 0.00 0.00 0.00 0.00 0.00 0.00 0.00 0.00 0.00 0.00 0.00 0.00 0.00 0.00
0.00 0.00 0.00 0.00 0.00 0.00 0.00 0.00 0.00 0.00 0.00 0.00 0.00 0.00 0.00 0.00 0.00 0.00 0.00 0.00 0.00 0.00 0.00 0.00 0.00 0.00 0.00 0.00 0.00 0.00 0.00 0.00 0.00 0.00 0.00 0.00 0.00 0.00 0.00 0.00 0.01 0.01 0.00
0.00 0.00 0.00 0.00 0.00 0.00 0.00 0.00 0.00 0.00 0.00 0.00 0.00 0.00 0.00 0.00 0.00 0.00 0.00 0.00 0.00 0.00 0.00 0.00 0.00 0.00 0.00 0.00 0.00 0.00 0.00 0.00 0.00 0.00 0.00 0.00 0.00 0.00 0.00 0.00 0.01 0.01 0.00
0.00 0.00 0.00 0.00 0.00 0.00 0.00 0.00 0.00 0.00 0.00 0.00 0.00 0.00 0.00 0.00 0.00 0.00 0.00 0.00 0.00 0.00 0.00 0.00 0.00 0.00 0.00 0.00 0.00 0.00 0.00 0.00 0.00 0.00 0.00 0.00 0.00 0.00 0.00 0.00 0.01 0.07 0.08
MSLP
1025.24 1025.02 1024.66 1024.38 1024.17 1023.95 1023.67 1023.43 1022.98 1022.45 1022.23 1021.85 1021.26 1020.83 1020.42 1019.84 1019.36 1018.84 1018.23 1017.69 1016.84 1016.42 1016.15 1015.82 1015.16 1014.80 1014.34 1014.04 1013.37 1013.13 1012.84 1012.60 1012.38 1012.78 1013.14 1013.33 1013.23 1013.17 1013.30 1013.16 1013.14 1013.55 1013.28
1025.35 1025.11 1024.82 1024.57 1024.32 1024.19 1023.90 1023.53 1023.02 1022.50 1022.33 1021.93 1021.40 1020.83 1020.27 1020.05 1019.55 1019.10 1018.45 1017.87 1017.26 1016.86 1016.58 1016.09 1015.40 1014.83 1014.42 1014.17 1013.52 1013.18 1012.90 1012.63 1012.57 1012.83 1013.49 1013.73 1013.73 1013.83 1014.01 1014.01 1013.88 1014.33 1014.04
1025.39 1025.15 1024.91 1024.75 1024.56 1024.39 1024.11 1023.64 1023.04 1022.71 1022.22 1021.63 1021.30 1020.96 1020.37 1020.22 1019.95 1019.59 1019.15 1018.29 1017.75 1017.54 1017.18 1016.35 1015.50 1015.12 1014.50 1014.05 1013.66 1013.14 1012.76 1012.37 1012.46 1012.99 1013.59 1014.00 1014.19 1014.21 1014.46 1014.63 1014.78 1014.85 1015.17
1025.41 1025.22 1025.16 1025.04 1024.87 1024.61 1024.25 1023.81 1023.36 1023.15 1022.72 1022.04 1021.60 1021.38 1020.68 1020.44 1019.99 1019.58 1019.39 1018.82 1018.06 1017.70 1017.56 1016.99 1016.00 1015.45 1015.02 1014.27 1014.01 1013.61 1013.12 1012.70 1012.92 1013.45 1013.94 1014.32 1014.62 1014.98 1014.99 1014.70 1015.55 1016.06 1015.83
1025.44 1025.34 1025.36 1025.28 1025.06 1024.79 1024.42 1023.98 1023.60 1023.32 1022.99 1022.53 1021.97 1021.36 1021.23 1020.77 1020.66 1020.05 1019.44 1019.10 1018.55 1017.86 1017.81 1017.42 1016.72 1016.09 1015.67 1014.99 1014.38 1014.07 1013.74 1013.57 1013.73 1014.12 1014.43 1014.79 1014.95 1015.21 1015.11 1015.56 1015.98 1016.33 1016.94
1025.60 1025.50 1025.48 1025.36 1025.09 1024.80 1024.49 1024.18 1023.84 1023.46 1023.01 1022.55 1022.14 1021.80 1021.41 1021.12 1020.89 1020.38 1019.82 1019.28 1018.77 1018.41 1017.98 1017.67 1017.11 1016.46 1015.82 1015.70 1015.23 1014.81 1014.55 1014.48 1014.49 1014.70 1015.02 1015.11 1015.37 1015.45 1015.47 1015.66 1016.12 1016.42 1016.90
1025.67 1025.56 1025.48 1025.35 1025.15 1024.95 1024.63 1024.25 1023.90 1023.72 1023.31 1022.88 1022.32 1021.89 1021.44 1021.27 1021.13 1020.51 1020.05 1019.60 1019.20 1018.84 1018.50 1018.06 1017.60 1017.13 1016.39 1015.90 1015.90 1015.73 1015.49 1015.35 1015.27 1015.23 1015.18 1015.36 1015.55 1015.48 1015.45 1015.76 1015.90 1015.91 1016.67
1025.62 1025.48 1025.41 1025.30 1025.16 1025.08 1024.78 1024.41 1024.06 1024.01 1023.72 1023.25 1022.80 1022.29 1021.68 1021.36 1021.33 1020.74 1020.11 1019.81 1019.36 1019.03 1018.79 1018.34 1017.97 1017.46 1017.27 1016.72 1016.31 1016.18 1016.15 1015.97 1015.98 1015.47 1015.46 1015.59 1015.72 1015.77 1015.79 1015.74 1015.89 1016.46 1016.76
1025.46 1025.38 1025.36 1025.33 1025.12 1024.98 1024.73 1024.60 1024.43 1024.23 1023.89 1023.52 1023.03 1022.57 1022.07 1021.67 1021.59 1021.07 1020.42 1019.50 1019.58 1019.25 1019.00 1018.69 1018.27 1017.92 1017.79 1017.33 1016.59 1016.64 1016.78 1016.87 1016.75 1016.70 1016.59 1016.52 1016.38 1016.15 1015.75 1015.69 1015.93 1015.85 1016.37
1025.32 1025.36 1025.36 1025.32 1025.19 1024.99 1025.06 1024.84 1024.74 1024.53 1024.10 1023.66 1023.13 1022.71 1022.31 1021.85 1021.60 1021.38 1020.89 1020.25 1019.37 1019.35 1019.02 1018.94 1018.90 1018.60 1018.25 1017.88 1017.52 1016.76 1017.06 1017.20 1016.97 1017.01 1016.98 1016.77 1016.59 1016.42 1016.24 1016.01 1015.72 1015.59 1016.01
1025.32 1025.33 1025.28 1025.24 1025.16 1025.13 1025.07 1024.88 1024.75 1024.46 1024.06 1023.62 1023.20 1022.83 1022.37 1022.06 1021.73 1021.63 1021.21 1020.58 1020.22 1019.49 1019.34 1019.16 1019.05 1019.05 1018.63 1018.32 1018.01 1017.70 1017.71 1017.64 1017.40 1017.00 1017.01 1016.95 1016.80 1016.73 1016.75 1016.61 1016.48 1016.19 1016.09
1025.19 1025.13 1025.08 1025.07 1024.97 1025.01 1024.90 1024.64 1024.59 1024.27 1023.98 1023.65 1023.26 1022.82 1022.47 1022.07 1021.79 1021.69 1021.49 1020.99 1020.47 1019.96 1019.65 1019.51 1019.35 1019.20 1018.98 1018.70 1018.36 1018.37 1018.16 1017.86 1017.49 1017.08 1016.92 1017.19 1017.20 1017.37 1017.30 1017.08 1017.13 1016.88 1016.62
1024.95 1024.79 1024.77 1024.77 1024.64 1024.66 1024.70 1024.46 1024.27 1024.21 1023.95 1023.63 1023.30 1022.93 1022.51 1022.24 1021.93 1021.62 1021.53 1021.12 1020.62 1020.13 1020.08 1019.85 1019.52 1019.29 1019.06 1018.80 1018.77 1018.55 1018.27 1017.73 1017.58 1017.54 1017.70 1017.74 1017.78 1017.72 1017.51 1017.42 1017.46 1017.63 1017.83
1024.58 1024.51 1024.49 1024.39 1024.33 1024.31 1024.22 1024.18 1024.07 1023.91 1023.69 1023.46 1023.34 1023.04 1022.63 1022.23 1022.22 1022.14 1021.78 1021.31 1020.93 1020.57 1020.28 1020.04 1019.73 1019.47 1019.24 1019.08 1018.77 1018.56 1018.29 1018.05 1017.81 1017.91 1018.04 1018.13 1018.21 1018.06 1017.92 1017.92 1017.90 1017.87 1017.82
1024.32 1024.28 1024.15 1023.90 1023.94 1024.11 1023.99 1023.94 1023.87 1023.84 1023.67 1023.54 1023.55 1023.51 1022.94 1022.45 1022.93 1023.08 1022.62 1021.93 1021.46 1020.99 1020.49 1020.13 1019.98 1019.78 1019.57 1019.24 1019.03 1018.80 1018.65 1018.47 1018.33 1018.28 1018.20 1018.21 1018.17 1018.20 1018.26 1018.25 1018.15 1017.84 1017.76
1024.08 1023.95 1023.99 1023.68 1023.58 1023.89 1023.76 1023.60 1023.75 1023.94 1023.82 1023.90 1023.95 1024.12 1023.43 1023.13 1023.34 1022.93 1022.48 1022.15 1021.71 1021.20 1020.71 1020.45 1020.23 1020.22 1020.14 1019.91 1019.59 1019.27 1018.99 1018.79 1018.69 1018.52 1018.44 1018.42 1018.37 1018.41 1018.42 1018.41 1018.37 1018.29 1018.17
1023.96 1023.92 1024.03 1023.93 1023.70 1023.56 1023.42 1023.35 1023.38 1023.39 1023.49 1023.56 1023.63 1023.65 1023.68 1023.58 1023.17 1022.85 1022.51 1022.18 1021.93 1021.41 1021.05 1020.65 1020.64 1020.49 1020.39 1020.16 1020.09 1019.88 1019.54 1019.19 1018.84 1018.75 1018.63 1018.68 1018.66 1018.65 1018.58 1018.57 1018.58 1018.52 1018.35
1023.94 1024.10 1023.99 1023.66 1023.57 1023.20 1023.02 1022.94 1022.96 1022.99 1022.99 1023.07 1023.12 1023.26 1023.28 1023.24 1022.97 1022.72 1022.46 1021.95 1021.77 1021.50 1021.25 1021.05 1020.92 1020.73 1020.53 1020.31 1020.37 1020.12 1019.87 1019.52 1019.19 1018.80 1018.69 1018.67 1018.68 1018.67 1018.61 1018.46 1018.32 1018.32 1018.02
1023.72 1023.75 1023.71 1023.56 1023.32 1023.06 1022.83 1022.44 1022.32 1022.46 1022.45 1022.40 1022.24 1022.42 1022.71 1022.91 1022.73 1022.58 1022.36 1022.17 1021.85 1021.61 1021.44 1021.19 1020.99 1020.94 1020.78 1020.45 1020.30 1020.19 1020.04 1019.76 1019.53 1019.18 1018.92 1018.62 1018.22 1018.07 1018.10 1018.11 1018.05 1018.13 1018.10
1023.83 1023.76 1023.68 1023.30 1023.07 1022.64 1022.49 1022.42 1022.37 1022.28 1022.15 1022.07 1022.07 1022.09 1022.39 1022.49 1022.45 1022.22 1022.29 1022.20 1021.91 1021.66 1021.43 1021.18 1020.97 1020.87 1020.75 1020.74 1020.32 1020.14 1019.90 1019.44 1019.41 1019.33 1019.11 1018.81 1018.46 1018.11 1017.91 1017.68 1017.84 1017.92 1017.81
1023.38 1023.42 1023.32 1022.99 1023.15 1022.70 1022.59 1022.74 1022.50 1022.36 1022.15 1022.12 1022.25 1022.31 1022.95 1022.75 1022.59 1022.43 1022.29 1022.12 1021.85 1021.51 1021.28 1020.92 1020.55 1020.88 1020.82 1020.69 1020.68 1020.17 1019.62 1019.48 1019.23 1019.05 1018.98 1018.97 1018.56 1018.01 1017.39 1017.29 1017.45 1017.49 1017.52
1022.93 1022.75 1022.65 1022.66 1022.63 1022.67 1022.80 1022.94 1022.64 1022.32 1022.20 1022.09 1022.13 1022.32 1022.83 1022.69 1022.57 1022.42 1022.28 1022.19 1021.94 1021.47 1021.19 1020.95 1020.62 1020.64 1021.00 1021.12 1020.94 1020.37 1020.18 1019.83 1019.49 1019.17 1018.83 1019.04 1018.54 1017.83 1017.53 1017.29 1017.21 1017.18 1017.24
1022.62 1022.54 1022.35 1022.38 1022.71 1022.90 1022.86 1022.82 1022.61 1022.26 1022.11 1022.01 1022.14 1022.48 1022.59 1022.68 1022.57 1022.48 1022.47 1022.38 1022.15 1021.42 1020.68 1020.59 1020.58 1020.45 1020.55 1020.72 1021.17 1020.59 1020.55 1020.14 1019.86 1019.86 1019.52 1019.08 1018.79 1018.24 1017.85 1017.24 1016.42 1016.72 1016.74
1022.39 1022.34 1022.20 1022.44 1022.67 1022.62 1022.70 1022.56 1022.41 1022.58 1022.43 1022.04 1022.31 1022.62 1022.67 1022.69 1022.71 1022.75 1022.74 1022.60 1022.35 1021.61 1021.04 1020.88 1020.96 1020.96 1020.87 1020.69 1020.63 1020.55 1020.71 1020.96 1020.70 1020.13 1019.92 1019.13 1018.83 1018.24 1017.77 1017.06 1016.08 1015.54 1015.35
1022.16 1022.11 1022.11 1022.08 1022.17 1022.27 1022.35 1022.39 1022.37 1022.31 1022.20 1022.17 1022.30 1022.58 1022.78 1022.90 1022.98 1022.98 1022.93 1022.82 1022.60 1021.82 1021.27 1021.17 1021.06 1021.11 1021.01 1021.00 1020.99 1020.98 1021.24 1021.12 1020.74 1020.36 1019.50 1019.22 1018.65 1017.92 1017.52 1016.78 1015.64 1014.86 1014.84
1022.08 1021.95 1021.85 1021.95 1022.13 1022.30 1022.40 1022.50 1022.46 1022.46 1022.39 1022.44 1022.68 1022.92 1023.04 1023.02 1023.15 1023.14 1023.07 1023.02 1022.65 1021.68 1021.52 1021.29 1021.30 1021.33 1021.15 1021.05 1021.46 1021.74 1021.33 1020.94 1020.41 1020.12 1019.61 1018.88 1018.22 1017.32 1016.93 1016.33 1015.33 1014.83 1014.45
Thickness
5555 5548 5540 5530 5523 5517 5511 5503 5496 5492 5485 5480 5475 5469 5464 5462 5460 5459 5461 5464 5470 5473 5475 5478 5484 5487 5492 5495 5503 5506 5512 5518 5529 5529 5528 5530 5536 5542 5547 5554 5560 5563 5571
5552 5545 5538 5528 5522 5515 5509 5502 5496 5492 5485 5480 5476 5473 5471 5465 5462 5460 5461 5463 5466 5467 5468 5472 5477 5482 5486 5489 5497 5502 5507 5513 5520 5521 5518 5521 5525 5529 5532 5536 5543 5546 5555
5550 5544 5537 5528 5520 5513 5507 5502 5497 5491 5487 5483 5479 5475 5473 5468 5463 5459 5457 5461 5462 5461 5461 5467 5473 5476 5481 5486 5491 5498 5505 5511 5516 5515 5512 5512 5516 5521 5522 5523 5528 5534 5535
5549 5544 5535 5527 5519 5513 5508 5503 5498 5490 5485 5484 5480 5474 5473 5468 5466 5464 5459 5458 5460 5459 5456 5459 5467 5471 5474 5482 5484 5490 5496 5504 5505 5504 5504 5504 5507 5508 5513 5520 5517 5516 5520
5548 5542 5533 5525 5518 5512 5507 5503 5499 5492 5487 5483 5480 5478 5471 5468 5463 5462 5461 5458 5458 5459 5454 5455 5459 5464 5467 5473 5479 5484 5488 5492 5493 5493 5494 5495 5498 5500 5506 5505 5502 5503 5498
5545 5540 5532 5524 5518 5513 5508 5503 5498 5494 5490 5487 5483 5478 5474 5470 5464 5462 5460 5458 5457 5455 5455 5454 5457 5461 5466 5467 5471 5476 5479 5481 5484 5485 5485 5487 5488 5490 5494 5496 5496 5497 5495
5544 5538 5531 5525 5519 5512 5507 5504 5500 5495 5491 5488 5486 5482 5479 5473 5466 5464 5461 5458 5456 5454 5453 5453 5454 5456 5461 5465 5465 5466 5469 5472 5475 5478 5480 5481 5481 5487 5490 5490 5494 5500 5493
5543 5538 5531 5525 5519 5512 5507 5503 5499 5494 5490 5487 5484 5482 5480 5476 5469 5466 5464 5461 5458 5456 5454 5454 5453 5455 5455 5459 5462 5462 5462 5465 5466 5473 5475 5477 5479 5479 5482 5487 5490 5487 5488
5543 5538 5531 5525 5519 5514 5510 5504 5498 5493 5490 5487 5485 5482 5480 5477 5470 5468 5467 5468 5460 5458 5456 5454 5454 5454 5452 5454 5460 5458 5457 5455 5455 5457 5460 5463 5468 5473 5478 5481 5484 5489 5486
5544 5537 5530 5524 5519 5515 5507 5503 5497 5493 5490 5488 5486 5484 5481 5479 5474 5470 5467 5467 5468 5460 5459 5455 5451 5451 5451 5452 5453 5459 5455 5452 5453 5452 5452 5456 5461 5465 5470 5474 5480 5486 5483
5542 5536 5530 5524 5519 5514 5508 5504 5498 5494 5491 5488 5486 5483 5481 5479 5477 5471 5469 5468 5464 5465 5459 5456 5454 5450 5451 5452 5452 5453 5452 5450 5451 5454 5454 5456 5459 5461 5462 5464 5467 5473 5477
5542 5537 5531 5525 5520 5514 5509 5506 5500 5497 5493 5489 5485 5483 5481 5479 5476 5473 5470 5467 5466 5465 5462 5458 5456 5453 5451 5451 5453 5450 5450 5452 5455 5457 5458 5454 5455 5454 5455 5456 5456 5460 5465
5542 5538 5532 5526 5522 5516 5510 5507 5503 5498 5495 5491 5487 5485 5481 5479 5477 5474 5472 5470 5469 5468 5463 5459 5458 5456 5455 5455 5452 5452 5453 5457 5457 5456 5455 5454 5453 5453 5454 5455 5454 5454 5455
5544 5539 5533 5528 5523 5518 5513 5508 5503 5500 5498 5494 5489 5486 5484 5481 5476 5473 5473 5472 5470 5468 5466 5463 5461 5460 5458 5457 5457 5457 5458 5459 5460 5458 5456 5454 5453 5455 5456 5455 5456 5457 5459
5544 5539 5535 5531 5525 5517 5513 5508 5504 5500 5496 5494 5489 5484 5483 5483 5474 5468 5467 5469 5468 5467 5466 5466 5464 5462 5460 5460 5459 5459 5458 5458 5457 5457 5457 5456 5457 5457 5456 5457 5458 5462 5464
5544 5540 5536 5531 5526 5517 5512 5509 5503 5498 5494 5489 5484 5479 5479 5475 5471 5470 5468 5467 5467 5466 5467 5465 5464 5460 5458 5457 5456 5457 5458 5458 5458 5459 5459 5459 5459 5459 5459 5458 5459 5459 5461
5541 5537 5530 5525 5522 5517 5513 5509 5505 5501 5494 5488 5483 5479 5475 5473 5472 5470 5469 5467 5465 5466 5465 5466 5462 5461 5458 5458 5456 5455 5456 5457 5459 5459 5459 5458 5458 5458 5457 5459 5458 5458 5460
5538 5529 5527 5524 5520 5518 5513 5509 5503 5499 5494 5490 5484 5479 5475 5472 5470 5469 5468 5469 5467 5465 5463 5461 5459 5459 5458 5457 5453 5453 5454 5456 5457 5459 5459 5459 5458 5457 5457 5459 5461 5459 5463
5535 5530 5525 5521 5518 5514 5511 5510 5507 5501 5496 5491 5488 5482 5475 5470 5468 5466 5464 5465 5464 5462 5459 5458 5457 5455 5454 5455 5454 5452 5451 5452 5453 5455 5457 5459 5462 5463 5463 5462 5462 5458 5457
5529 5523 5519 5519 5515 5514 5510 5506 5502 5498 5494 5490 5485 5481 5474 5469 5466 5465 5462 5459 5459 5458 5457 5456 5455 5453 5452 5450 5452 5451 5451 5454 5453 5452 5453 5455 5458 5461 5461 5463 5461 5459 5460
5528 5523 5517 5517 5510 5509 5505 5498 5496 5493 5490 5485 5479 5473 5460 5462 5459 5457 5455 5454 5453 5453 5453 5454 5455 5449 5448 5447 5445 5448 5452 5451 5452 5452 5452 5450 5453 5458 5464 5464 5462 5461 5460
5527 5524 5520 5515 5510 5505 5499 5492 5490 5489 5485 5481 5476 5470 5459 5457 5454 5451 5449 5446 5444 5445 5445 5446 5447 5445 5441 5440 5440 5443 5442 5444 5445 5447 5450 5445 5449 5455 5458 5459 5460 5459 5458
5525 5520 5517 5513 5505 5498 5494 5490 5487 5485 5482 5477 5471 5463 5458 5452 5449 5445 5440 5437 5435 5437 5440 5440 5439 5439 5437 5435 5432 5434 5434 5436 5436 5435 5437 5438 5439 5443 5447 5454 5462 5457 5457
5522 5518 5514 5507 5501 5497 5491 5489 5484 5477 5473 5471 5464 5456 5451 5447 5442 5436 5432 5428 5427 5428 5429 5429 5428 5427 5427 5427 5427 5427 5426 5425 5426 5427 5428 5431 5429 5432 5436 5446 5457 5464 5468
5519 5515 5510 5507 5502 5496 5491 5485 5480 5475 5470 5465 5459 5451 5445 5439 5433 5429 5424 5420 5418 5420 5421 5419 5418 5416 5416 5416 5416 5417 5417 5418 5420 5422 5424 5423 5423 5424 5427 5439 5454 5463 5466
5515 5511 5508 5503 5497 5491 5485 5479 5474 5468 5463 5457 5450 5442 5436 5432 5425 5420 5416 5411 5409 5412 5410 5409 5407 5406 5406 5407 5405 5406 5409 5412 5415 5417 5418 5420 5421 5425 5427 5436 5449 5456 5461